owner,sensor,date,latitude,longitude,relative_humidity,qcFlag 
COMPS,ioos:station:USF.COMPS:ARP:1,2014-08-01T00:00:00Z,28.4330,-82.6670,59.76,1111122 
COMPS,ioos:station:USF.COMPS:ARP:1,2014-08-01T00:06:00Z,28.4330,-82.6670,58.12,1111122 
COMPS,ioos:station:USF.COMPS:ARP:1,2014-08-01T00:12:00Z,28.4330,-82.6670,58.87,1111122 
COMPS,ioos:station:USF.COMPS:ARP:1,2014-08-01T00:18:00Z,28.4330,-82.6670,58.8,1111122 
COMPS,ioos:station:USF.COMPS:ARP:1,2014-08-01T00:24:00Z,28.4330,-82.6670,59.54,1111122 
COMPS,ioos:station:USF.COMPS:ARP:1,2014-08-01T00:30:00Z,28.4330,-82.6670,59.78,1111122 
COMPS,ioos:station:USF.COMPS:ARP:1,2014-08-01T00:36:00Z,28.4330,-82.6670,60.08,1111122 
COMPS,ioos:station:USF.COMPS:ARP:1,2014-08-01T00:42:00Z,28.4330,-82.6670,59.84,1111122 
COMPS,ioos:station:USF.COMPS:ARP:1,2014-08-01T00:48:00Z,28.4330,-82.6670,60.47,1111122 
COMPS,ioos:station:USF.COMPS:ARP:1,2014-08-01T00:54:00Z,28.4330,-82.6670,58.73,1111122 
COMPS,ioos:station:USF.COMPS:ARP:1,2014-08-01T01:00:00Z,28.4330,-82.6670,59.95,1111122 
COMPS,ioos:station:USF.COMPS:ARP:1,2014-08-01T01:06:00Z,28.4330,-82.6670,59.79,1111122 
COMPS,ioos:station:USF.COMPS:ARP:1,2014-08-01T01:12:00Z,28.4330,-82.6670,59.14,1111122 
COMPS,ioos:station:USF.COMPS:ARP:1,2014-08-01T01:18:00Z,28.4330,-82.6670,60.78,1111122 
COMPS,ioos:station:USF.COMPS:ARP:1,2014-08-01T01:24:00Z,28.4330,-82.6670,60.47,1111122 
COMPS,ioos:station:USF.COMPS:ARP:1,2014-08-01T01:30:00Z,28.4330,-82.6670,60.83,1111122 
COMPS,ioos:station:USF.COMPS:ARP:1,2014-08-01T01:36:00Z,28.4330,-82.6670,60.19,1111122 
COMPS,ioos:station:USF.COMPS:ARP:1,2014-08-01T01:42:00Z,28.4330,-82.6670,60.16,1111122 
COMPS,ioos:station:USF.COMPS:ARP:1,2014-08-01T01:48:00Z,28.4330,-82.6670,59.96,1111122 
COMPS,ioos:station:USF.COMPS:ARP:1,2014-08-01T01:54:00Z,28.4330,-82.6670,60.36,1111122 
COMPS,ioos:station:USF.COMPS:ARP:1,2014-08-01T02:00:00Z,28.4330,-82.6670,61.54,1111122 
COMPS,ioos:station:USF.COMPS:ARP:1,2014-08-01T02:06:00Z,28.4330,-82.6670,60.45,1111122 
COMPS,ioos:station:USF.COMPS:ARP:1,2014-08-01T02:12:00Z,28.4330,-82.6670,60.32,1111122 
COMPS,ioos:station:USF.COMPS:ARP:1,2014-08-01T02:18:00Z,28.4330,-82.6670,60.6,1111122 
COMPS,ioos:station:USF.COMPS:ARP:1,2014-08-01T02:24:00Z,28.4330,-82.6670,61.89,1111122 
COMPS,ioos:station:USF.COMPS:ARP:1,2014-08-01T02:30:00Z,28.4330,-82.6670,65.26,1111122 
COMPS,ioos:station:USF.COMPS:ARP:1,2014-08-01T02:36:00Z,28.4330,-82.6670,68.38,1111122 
COMPS,ioos:station:USF.COMPS:ARP:1,2014-08-01T02:42:00Z,28.4330,-82.6670,70.37,1111122 
COMPS,ioos:station:USF.COMPS:ARP:1,2014-08-01T02:48:00Z,28.4330,-82.6670,72.99,1111122 
COMPS,ioos:station:USF.COMPS:ARP:1,2014-08-01T02:54:00Z,28.4330,-82.6670,74.96,1111122 
COMPS,ioos:station:USF.COMPS:ARP:1,2014-08-01T03:00:00Z,28.4330,-82.6670,76.14,1111122 
COMPS,ioos:station:USF.COMPS:ARP:1,2014-08-01T03:06:00Z,28.4330,-82.6670,78.37,1111122 
COMPS,ioos:station:USF.COMPS:ARP:1,2014-08-01T03:12:00Z,28.4330,-82.6670,78.87,1111122 
COMPS,ioos:station:USF.COMPS:ARP:1,2014-08-01T03:18:00Z,28.4330,-82.6670,79.3,1111122 
COMPS,ioos:station:USF.COMPS:ARP:1,2014-08-01T03:24:00Z,28.4330,-82.6670,80.07,1111122 
COMPS,ioos:station:USF.COMPS:ARP:1,2014-08-01T03:30:00Z,28.4330,-82.6670,80.25,1111122 
COMPS,ioos:station:USF.COMPS:ARP:1,2014-08-01T03:36:00Z,28.4330,-82.6670,81.2,1111122 
COMPS,ioos:station:USF.COMPS:ARP:1,2014-08-01T03:42:00Z,28.4330,-82.6670,82.31,1111122 
COMPS,ioos:station:USF.COMPS:ARP:1,2014-08-01T03:48:00Z,28.4330,-82.6670,82.41,1111122 
COMPS,ioos:station:USF.COMPS:ARP:1,2014-08-01T03:54:00Z,28.4330,-82.6670,81.73,1111122 
COMPS,ioos:station:USF.COMPS:ARP:1,2014-08-01T04:00:00Z,28.4330,-82.6670,83.0,1111122 
COMPS,ioos:station:USF.COMPS:ARP:1,2014-08-01T04:06:00Z,28.4330,-82.6670,83.18,1111122 
COMPS,ioos:station:USF.COMPS:ARP:1,2014-08-01T04:12:00Z,28.4330,-82.6670,83.09,1111122 
COMPS,ioos:station:USF.COMPS:ARP:1,2014-08-01T04:18:00Z,28.4330,-82.6670,83.84,1111122 
COMPS,ioos:station:USF.COMPS:ARP:1,2014-08-01T04:24:00Z,28.4330,-82.6670,83.79,1111122 
COMPS,ioos:station:USF.COMPS:ARP:1,2014-08-01T04:30:00Z,28.4330,-82.6670,84.3,1111122 
COMPS,ioos:station:USF.COMPS:ARP:1,2014-08-01T04:36:00Z,28.4330,-82.6670,84.93,1111122 
COMPS,ioos:station:USF.COMPS:ARP:1,2014-08-01T04:42:00Z,28.4330,-82.6670,85.17,1111122 
COMPS,ioos:station:USF.COMPS:ARP:1,2014-08-01T04:48:00Z,28.4330,-82.6670,84.89,1111122 
COMPS,ioos:station:USF.COMPS:ARP:1,2014-08-01T04:54:00Z,28.4330,-82.6670,85.34,1111122 
COMPS,ioos:station:USF.COMPS:ARP:1,2014-08-01T05:00:00Z,28.4330,-82.6670,85.72,1111122 
COMPS,ioos:station:USF.COMPS:ARP:1,2014-08-01T05:06:00Z,28.4330,-82.6670,85.91,1111122 
COMPS,ioos:station:USF.COMPS:ARP:1,2014-08-01T05:12:00Z,28.4330,-82.6670,86.24,1111122 
COMPS,ioos:station:USF.COMPS:ARP:1,2014-08-01T05:18:00Z,28.4330,-82.6670,86.33,1111122 
COMPS,ioos:station:USF.COMPS:ARP:1,2014-08-01T05:24:00Z,28.4330,-82.6670,86.6,1111122 
COMPS,ioos:station:USF.COMPS:ARP:1,2014-08-01T05:30:00Z,28.4330,-82.6670,86.31,1111122 
COMPS,ioos:station:USF.COMPS:ARP:1,2014-08-01T05:36:00Z,28.4330,-82.6670,86.63,1111122 
COMPS,ioos:station:USF.COMPS:ARP:1,2014-08-01T05:42:00Z,28.4330,-82.6670,86.39,1111122 
COMPS,ioos:station:USF.COMPS:ARP:1,2014-08-01T05:48:00Z,28.4330,-82.6670,86.67,1111122 
COMPS,ioos:station:USF.COMPS:ARP:1,2014-08-01T05:54:00Z,28.4330,-82.6670,86.92,1111122 
COMPS,ioos:station:USF.COMPS:ARP:1,2014-08-01T06:00:00Z,28.4330,-82.6670,87.44,1111122 
COMPS,ioos:station:USF.COMPS:ARP:1,2014-08-01T06:06:00Z,28.4330,-82.6670,86.51,1111122 
COMPS,ioos:station:USF.COMPS:ARP:1,2014-08-01T06:12:00Z,28.4330,-82.6670,86.49,1111122 
COMPS,ioos:station:USF.COMPS:ARP:1,2014-08-01T06:18:00Z,28.4330,-82.6670,86.31,1111122 
COMPS,ioos:station:USF.COMPS:ARP:1,2014-08-01T06:24:00Z,28.4330,-82.6670,86.62,1111122 
COMPS,ioos:station:USF.COMPS:ARP:1,2014-08-01T06:30:00Z,28.4330,-82.6670,86.5,1111122 
COMPS,ioos:station:USF.COMPS:ARP:1,2014-08-01T06:36:00Z,28.4330,-82.6670,86.56,1111122 
COMPS,ioos:station:USF.COMPS:ARP:1,2014-08-01T06:42:00Z,28.4330,-82.6670,86.63,1111122 
COMPS,ioos:station:USF.COMPS:ARP:1,2014-08-01T06:48:00Z,28.4330,-82.6670,86.24,1111122 
COMPS,ioos:station:USF.COMPS:ARP:1,2014-08-01T06:54:00Z,28.4330,-82.6670,85.43,1111122 
COMPS,ioos:station:USF.COMPS:ARP:1,2014-08-01T07:00:00Z,28.4330,-82.6670,83.62,1111122 
COMPS,ioos:station:USF.COMPS:ARP:1,2014-08-01T07:06:00Z,28.4330,-82.6670,83.17,1111122 
COMPS,ioos:station:USF.COMPS:ARP:1,2014-08-01T07:12:00Z,28.4330,-82.6670,83.83,1111122 
COMPS,ioos:station:USF.COMPS:ARP:1,2014-08-01T07:18:00Z,28.4330,-82.6670,82.25,1111122 
COMPS,ioos:station:USF.COMPS:ARP:1,2014-08-01T07:24:00Z,28.4330,-82.6670,81.4,1111122 
COMPS,ioos:station:USF.COMPS:ARP:1,2014-08-01T07:30:00Z,28.4330,-82.6670,81.31,1111122 
COMPS,ioos:station:USF.COMPS:ARP:1,2014-08-01T07:36:00Z,28.4330,-82.6670,81.32,1111122 
COMPS,ioos:station:USF.COMPS:ARP:1,2014-08-01T07:42:00Z,28.4330,-82.6670,81.12,1111122 
COMPS,ioos:station:USF.COMPS:ARP:1,2014-08-01T07:48:00Z,28.4330,-82.6670,80.9,1111122 
COMPS,ioos:station:USF.COMPS:ARP:1,2014-08-01T07:54:00Z,28.4330,-82.6670,80.77,1111122 
COMPS,ioos:station:USF.COMPS:ARP:1,2014-08-01T08:00:00Z,28.4330,-82.6670,81.07,1111122 
COMPS,ioos:station:USF.COMPS:ARP:1,2014-08-01T08:06:00Z,28.4330,-82.6670,81.78,1111122 
COMPS,ioos:station:USF.COMPS:ARP:1,2014-08-01T08:12:00Z,28.4330,-82.6670,82.15,1111122 
COMPS,ioos:station:USF.COMPS:ARP:1,2014-08-01T08:18:00Z,28.4330,-82.6670,82.29,1111122 
COMPS,ioos:station:USF.COMPS:ARP:1,2014-08-01T08:24:00Z,28.4330,-82.6670,83.07,1111122 
COMPS,ioos:station:USF.COMPS:ARP:1,2014-08-01T08:30:00Z,28.4330,-82.6670,82.95,1111122 
COMPS,ioos:station:USF.COMPS:ARP:1,2014-08-01T08:36:00Z,28.4330,-82.6670,84.39,1111122 
COMPS,ioos:station:USF.COMPS:ARP:1,2014-08-01T08:42:00Z,28.4330,-82.6670,84.92,1111122 
COMPS,ioos:station:USF.COMPS:ARP:1,2014-08-01T08:48:00Z,28.4330,-82.6670,85.02,1111122 
COMPS,ioos:station:USF.COMPS:ARP:1,2014-08-01T08:54:00Z,28.4330,-82.6670,85.27,1111122 
COMPS,ioos:station:USF.COMPS:ARP:1,2014-08-01T09:00:00Z,28.4330,-82.6670,85.76,1111122 
COMPS,ioos:station:USF.COMPS:ARP:1,2014-08-01T09:06:00Z,28.4330,-82.6670,85.76,1111122 
COMPS,ioos:station:USF.COMPS:ARP:1,2014-08-01T09:12:00Z,28.4330,-82.6670,86.63,1111122 
COMPS,ioos:station:USF.COMPS:ARP:1,2014-08-01T09:18:00Z,28.4330,-82.6670,87.01,1111122 
COMPS,ioos:station:USF.COMPS:ARP:1,2014-08-01T09:24:00Z,28.4330,-82.6670,86.98,1111122 
COMPS,ioos:station:USF.COMPS:ARP:1,2014-08-01T09:30:00Z,28.4330,-82.6670,87.4,1111122 
COMPS,ioos:station:USF.COMPS:ARP:1,2014-08-01T09:36:00Z,28.4330,-82.6670,88.31,1111122 
COMPS,ioos:station:USF.COMPS:ARP:1,2014-08-01T09:42:00Z,28.4330,-82.6670,88.82,1111122 
COMPS,ioos:station:USF.COMPS:ARP:1,2014-08-01T09:48:00Z,28.4330,-82.6670,89.24,1111122 
COMPS,ioos:station:USF.COMPS:ARP:1,2014-08-01T09:54:00Z,28.4330,-82.6670,89.42,1111122 
COMPS,ioos:station:USF.COMPS:ARP:1,2014-08-01T10:00:00Z,28.4330,-82.6670,89.26,1111122 
COMPS,ioos:station:USF.COMPS:ARP:1,2014-08-01T10:06:00Z,28.4330,-82.6670,89.3,1111122 
COMPS,ioos:station:USF.COMPS:ARP:1,2014-08-01T10:12:00Z,28.4330,-82.6670,89.34,1111122 
COMPS,ioos:station:USF.COMPS:ARP:1,2014-08-01T10:18:00Z,28.4330,-82.6670,89.5,1111122 
COMPS,ioos:station:USF.COMPS:ARP:1,2014-08-01T10:24:00Z,28.4330,-82.6670,89.58,1111122 
COMPS,ioos:station:USF.COMPS:ARP:1,2014-08-01T10:30:00Z,28.4330,-82.6670,89.5,1111122 
COMPS,ioos:station:USF.COMPS:ARP:1,2014-08-01T10:36:00Z,28.4330,-82.6670,89.94,1111122 
COMPS,ioos:station:USF.COMPS:ARP:1,2014-08-01T10:42:00Z,28.4330,-82.6670,90.34,1111122 
COMPS,ioos:station:USF.COMPS:ARP:1,2014-08-01T10:48:00Z,28.4330,-82.6670,90.62,1111122 
COMPS,ioos:station:USF.COMPS:ARP:1,2014-08-01T10:54:00Z,28.4330,-82.6670,90.86,1111122 
COMPS,ioos:station:USF.COMPS:ARP:1,2014-08-01T11:00:00Z,28.4330,-82.6670,91.18,1111122 
COMPS,ioos:station:USF.COMPS:ARP:1,2014-08-01T11:06:00Z,28.4330,-82.6670,91.18,1111122 
COMPS,ioos:station:USF.COMPS:ARP:1,2014-08-01T11:12:00Z,28.4330,-82.6670,91.22,1111122 
COMPS,ioos:station:USF.COMPS:ARP:1,2014-08-01T11:18:00Z,28.4330,-82.6670,91.18,1111122 
COMPS,ioos:station:USF.COMPS:ARP:1,2014-08-01T11:24:00Z,28.4330,-82.6670,91.08,1111122 
COMPS,ioos:station:USF.COMPS:ARP:1,2014-08-01T11:30:00Z,28.4330,-82.6670,91.01,1111122 
COMPS,ioos:station:USF.COMPS:ARP:1,2014-08-01T11:36:00Z,28.4330,-82.6670,90.69,1111122 
COMPS,ioos:station:USF.COMPS:ARP:1,2014-08-01T11:42:00Z,28.4330,-82.6670,89.64,1111122 
COMPS,ioos:station:USF.COMPS:ARP:1,2014-08-01T11:48:00Z,28.4330,-82.6670,87.57,1111122 
COMPS,ioos:station:USF.COMPS:ARP:1,2014-08-01T11:54:00Z,28.4330,-82.6670,85.52,1111122 
COMPS,ioos:station:USF.COMPS:ARP:1,2014-08-01T12:00:00Z,28.4330,-82.6670,83.68,1111122 
COMPS,ioos:station:USF.COMPS:ARP:1,2014-08-01T12:06:00Z,28.4330,-82.6670,81.23,1111122 
COMPS,ioos:station:USF.COMPS:ARP:1,2014-08-01T12:12:00Z,28.4330,-82.6670,78.04,1111122 
COMPS,ioos:station:USF.COMPS:ARP:1,2014-08-01T12:18:00Z,28.4330,-82.6670,75.1,1111122 
COMPS,ioos:station:USF.COMPS:ARP:1,2014-08-01T12:24:00Z,28.4330,-82.6670,73.25,1111122 
COMPS,ioos:station:USF.COMPS:ARP:1,2014-08-01T12:30:00Z,28.4330,-82.6670,72.54,1111122 
COMPS,ioos:station:USF.COMPS:ARP:1,2014-08-01T12:36:00Z,28.4330,-82.6670,71.98,1111122 
COMPS,ioos:station:USF.COMPS:ARP:1,2014-08-01T12:42:00Z,28.4330,-82.6670,70.34,1111122 
COMPS,ioos:station:USF.COMPS:ARP:1,2014-08-01T12:48:00Z,28.4330,-82.6670,70.24,1111122 
COMPS,ioos:station:USF.COMPS:ARP:1,2014-08-01T12:54:00Z,28.4330,-82.6670,69.57,1111122 
COMPS,ioos:station:USF.COMPS:ARP:1,2014-08-01T13:00:00Z,28.4330,-82.6670,69.11,1111122 
COMPS,ioos:station:USF.COMPS:ARP:1,2014-08-01T13:06:00Z,28.4330,-82.6670,68.79,1111122 
COMPS,ioos:station:USF.COMPS:ARP:1,2014-08-01T13:12:00Z,28.4330,-82.6670,68.44,1111122 
COMPS,ioos:station:USF.COMPS:ARP:1,2014-08-01T13:18:00Z,28.4330,-82.6670,68.07,1111122 
COMPS,ioos:station:USF.COMPS:ARP:1,2014-08-01T13:24:00Z,28.4330,-82.6670,67.45,1111122 
COMPS,ioos:station:USF.COMPS:ARP:1,2014-08-01T13:30:00Z,28.4330,-82.6670,66.9,1111122 
COMPS,ioos:station:USF.COMPS:ARP:1,2014-08-01T13:36:00Z,28.4330,-82.6670,66.75,1111122 
COMPS,ioos:station:USF.COMPS:ARP:1,2014-08-01T13:42:00Z,28.4330,-82.6670,64.96,1111122 
COMPS,ioos:station:USF.COMPS:ARP:1,2014-08-01T13:48:00Z,28.4330,-82.6670,63.61,1111122 
COMPS,ioos:station:USF.COMPS:ARP:1,2014-08-01T13:54:00Z,28.4330,-82.6670,61.83,1111122 
COMPS,ioos:station:USF.COMPS:ARP:1,2014-08-01T14:00:00Z,28.4330,-82.6670,63.37,1111122 
COMPS,ioos:station:USF.COMPS:ARP:1,2014-08-01T14:06:00Z,28.4330,-82.6670,65.36,1111122 
COMPS,ioos:station:USF.COMPS:ARP:1,2014-08-01T14:12:00Z,28.4330,-82.6670,65.26,1111122 
COMPS,ioos:station:USF.COMPS:ARP:1,2014-08-01T14:18:00Z,28.4330,-82.6670,65.97,1111122 
COMPS,ioos:station:USF.COMPS:ARP:1,2014-08-01T14:24:00Z,28.4330,-82.6670,66.06,1111122 
COMPS,ioos:station:USF.COMPS:ARP:1,2014-08-01T14:30:00Z,28.4330,-82.6670,65.57,1111122 
COMPS,ioos:station:USF.COMPS:ARP:1,2014-08-01T14:36:00Z,28.4330,-82.6670,65.49,1111122 
COMPS,ioos:station:USF.COMPS:ARP:1,2014-08-01T14:42:00Z,28.4330,-82.6670,65.45,1111122 
COMPS,ioos:station:USF.COMPS:ARP:1,2014-08-01T14:48:00Z,28.4330,-82.6670,65.03,1111122 
COMPS,ioos:station:USF.COMPS:ARP:1,2014-08-01T14:54:00Z,28.4330,-82.6670,65.65,1111122 
COMPS,ioos:station:USF.COMPS:ARP:1,2014-08-01T15:00:00Z,28.4330,-82.6670,65.37,1111122 
COMPS,ioos:station:USF.COMPS:ARP:1,2014-08-01T15:06:00Z,28.4330,-82.6670,65.56,1111122 
COMPS,ioos:station:USF.COMPS:ARP:1,2014-08-01T15:12:00Z,28.4330,-82.6670,66.32,1111122 
COMPS,ioos:station:USF.COMPS:ARP:1,2014-08-01T15:18:00Z,28.4330,-82.6670,65.64,1111122 
COMPS,ioos:station:USF.COMPS:ARP:1,2014-08-01T15:24:00Z,28.4330,-82.6670,66.71,1111122 
COMPS,ioos:station:USF.COMPS:ARP:1,2014-08-01T15:30:00Z,28.4330,-82.6670,66.55,1111122 
COMPS,ioos:station:USF.COMPS:ARP:1,2014-08-01T15:36:00Z,28.4330,-82.6670,65.83,1111122 
COMPS,ioos:station:USF.COMPS:ARP:1,2014-08-01T15:42:00Z,28.4330,-82.6670,66.52,1111122 
COMPS,ioos:station:USF.COMPS:ARP:1,2014-08-01T15:48:00Z,28.4330,-82.6670,66.51,1111122 
COMPS,ioos:station:USF.COMPS:ARP:1,2014-08-01T15:54:00Z,28.4330,-82.6670,66.7,1111122 
COMPS,ioos:station:USF.COMPS:ARP:1,2014-08-01T16:00:00Z,28.4330,-82.6670,66.51,1111122 
COMPS,ioos:station:USF.COMPS:ARP:1,2014-08-01T16:06:00Z,28.4330,-82.6670,66.64,1111122 
COMPS,ioos:station:USF.COMPS:ARP:1,2014-08-01T16:12:00Z,28.4330,-82.6670,66.95,1111122 
COMPS,ioos:station:USF.COMPS:ARP:1,2014-08-01T16:18:00Z,28.4330,-82.6670,64.76,1111122 
COMPS,ioos:station:USF.COMPS:ARP:1,2014-08-01T16:24:00Z,28.4330,-82.6670,66.06,1111122 
COMPS,ioos:station:USF.COMPS:ARP:1,2014-08-01T16:30:00Z,28.4330,-82.6670,66.12,1111122 
COMPS,ioos:station:USF.COMPS:ARP:1,2014-08-01T16:36:00Z,28.4330,-82.6670,67.3,1111122 
COMPS,ioos:station:USF.COMPS:ARP:1,2014-08-01T16:42:00Z,28.4330,-82.6670,65.9,1111122 
COMPS,ioos:station:USF.COMPS:ARP:1,2014-08-01T16:48:00Z,28.4330,-82.6670,66.5,1111122 
COMPS,ioos:station:USF.COMPS:ARP:1,2014-08-01T16:54:00Z,28.4330,-82.6670,66.62,1111122 
COMPS,ioos:station:USF.COMPS:ARP:1,2014-08-01T17:00:00Z,28.4330,-82.6670,65.92,1111122 
COMPS,ioos:station:USF.COMPS:ARP:1,2014-08-01T17:06:00Z,28.4330,-82.6670,65.53,1111122 
COMPS,ioos:station:USF.COMPS:ARP:1,2014-08-01T17:12:00Z,28.4330,-82.6670,66.49,1111122 
COMPS,ioos:station:USF.COMPS:ARP:1,2014-08-01T17:18:00Z,28.4330,-82.6670,65.66,1111122 
COMPS,ioos:station:USF.COMPS:ARP:1,2014-08-01T17:24:00Z,28.4330,-82.6670,65.31,1111122 
COMPS,ioos:station:USF.COMPS:ARP:1,2014-08-01T17:30:00Z,28.4330,-82.6670,65.07,1111122 
COMPS,ioos:station:USF.COMPS:ARP:1,2014-08-01T17:36:00Z,28.4330,-82.6670,63.89,1111122 
COMPS,ioos:station:USF.COMPS:ARP:1,2014-08-01T17:42:00Z,28.4330,-82.6670,64.81,1111122 
COMPS,ioos:station:USF.COMPS:ARP:1,2014-08-01T17:48:00Z,28.4330,-82.6670,62.95,1111122 
COMPS,ioos:station:USF.COMPS:ARP:1,2014-08-01T17:54:00Z,28.4330,-82.6670,63.0,1111122 
COMPS,ioos:station:USF.COMPS:ARP:1,2014-08-01T18:00:00Z,28.4330,-82.6670,63.55,1111122 
COMPS,ioos:station:USF.COMPS:ARP:1,2014-08-01T18:06:00Z,28.4330,-82.6670,62.57,1111122 
COMPS,ioos:station:USF.COMPS:ARP:1,2014-08-01T18:12:00Z,28.4330,-82.6670,63.29,1111122 
COMPS,ioos:station:USF.COMPS:ARP:1,2014-08-01T18:18:00Z,28.4330,-82.6670,62.17,1111122 
COMPS,ioos:station:USF.COMPS:ARP:1,2014-08-01T18:24:00Z,28.4330,-82.6670,62.66,1111122 
COMPS,ioos:station:USF.COMPS:ARP:1,2014-08-01T18:30:00Z,28.4330,-82.6670,61.93,1111122 
COMPS,ioos:station:USF.COMPS:ARP:1,2014-08-01T18:36:00Z,28.4330,-82.6670,61.24,1111122 
COMPS,ioos:station:USF.COMPS:ARP:1,2014-08-01T18:42:00Z,28.4330,-82.6670,60.41,1111122 
COMPS,ioos:station:USF.COMPS:ARP:1,2014-08-01T18:48:00Z,28.4330,-82.6670,61.1,1111122 
COMPS,ioos:station:USF.COMPS:ARP:1,2014-08-01T18:54:00Z,28.4330,-82.6670,60.03,1111122 
COMPS,ioos:station:USF.COMPS:ARP:1,2014-08-01T19:00:00Z,28.4330,-82.6670,60.34,1111122 
COMPS,ioos:station:USF.COMPS:ARP:1,2014-08-01T19:06:00Z,28.4330,-82.6670,59.36,1111122 
COMPS,ioos:station:USF.COMPS:ARP:1,2014-08-01T19:12:00Z,28.4330,-82.6670,58.74,1111122 
COMPS,ioos:station:USF.COMPS:ARP:1,2014-08-01T19:18:00Z,28.4330,-82.6670,58.63,1111122 
COMPS,ioos:station:USF.COMPS:ARP:1,2014-08-01T19:24:00Z,28.4330,-82.6670,59.26,1111122 
COMPS,ioos:station:USF.COMPS:ARP:1,2014-08-01T19:30:00Z,28.4330,-82.6670,58.91,1111122 
COMPS,ioos:station:USF.COMPS:ARP:1,2014-08-01T19:36:00Z,28.4330,-82.6670,56.66,1111122 
COMPS,ioos:station:USF.COMPS:ARP:1,2014-08-01T19:42:00Z,28.4330,-82.6670,55.44,1111122 
COMPS,ioos:station:USF.COMPS:ARP:1,2014-08-01T19:48:00Z,28.4330,-82.6670,55.14,1111122 
COMPS,ioos:station:USF.COMPS:ARP:1,2014-08-01T19:54:00Z,28.4330,-82.6670,56.21,1111122 
COMPS,ioos:station:USF.COMPS:ARP:1,2014-08-01T20:00:00Z,28.4330,-82.6670,55.52,1111122 
COMPS,ioos:station:USF.COMPS:ARP:1,2014-08-01T20:06:00Z,28.4330,-82.6670,55.38,1111122 
COMPS,ioos:station:USF.COMPS:ARP:1,2014-08-01T20:12:00Z,28.4330,-82.6670,53.65,1111122 
COMPS,ioos:station:USF.COMPS:ARP:1,2014-08-01T20:18:00Z,28.4330,-82.6670,55.29,1111122 
COMPS,ioos:station:USF.COMPS:ARP:1,2014-08-01T20:24:00Z,28.4330,-82.6670,56.4,1111122 
COMPS,ioos:station:USF.COMPS:ARP:1,2014-08-01T20:30:00Z,28.4330,-82.6670,57.08,1111122 
COMPS,ioos:station:USF.COMPS:ARP:1,2014-08-01T20:36:00Z,28.4330,-82.6670,57.19,1111122 
COMPS,ioos:station:USF.COMPS:ARP:1,2014-08-01T20:42:00Z,28.4330,-82.6670,56.2,1111122 
COMPS,ioos:station:USF.COMPS:ARP:1,2014-08-01T20:48:00Z,28.4330,-82.6670,56.85,1111122 
COMPS,ioos:station:USF.COMPS:ARP:1,2014-08-01T20:54:00Z,28.4330,-82.6670,56.62,1111122 
COMPS,ioos:station:USF.COMPS:ARP:1,2014-08-01T21:00:00Z,28.4330,-82.6670,59.3,1111122 
COMPS,ioos:station:USF.COMPS:ARP:1,2014-08-01T21:06:00Z,28.4330,-82.6670,59.39,1111122 
COMPS,ioos:station:USF.COMPS:ARP:1,2014-08-01T21:12:00Z,28.4330,-82.6670,58.69,1111122 
COMPS,ioos:station:USF.COMPS:ARP:1,2014-08-01T21:18:00Z,28.4330,-82.6670,58.56,1111122 
COMPS,ioos:station:USF.COMPS:ARP:1,2014-08-01T21:24:00Z,28.4330,-82.6670,59.65,1111122 
COMPS,ioos:station:USF.COMPS:ARP:1,2014-08-01T21:30:00Z,28.4330,-82.6670,60.24,1111122 
COMPS,ioos:station:USF.COMPS:ARP:1,2014-08-01T21:36:00Z,28.4330,-82.6670,61.07,1111122 
COMPS,ioos:station:USF.COMPS:ARP:1,2014-08-01T21:42:00Z,28.4330,-82.6670,60.68,1111122 
COMPS,ioos:station:USF.COMPS:ARP:1,2014-08-01T21:48:00Z,28.4330,-82.6670,58.97,1111122 
COMPS,ioos:station:USF.COMPS:ARP:1,2014-08-01T21:54:00Z,28.4330,-82.6670,59.47,1111122 
COMPS,ioos:station:USF.COMPS:ARP:1,2014-08-01T22:00:00Z,28.4330,-82.6670,60.22,1111122 
COMPS,ioos:station:USF.COMPS:ARP:1,2014-08-01T22:06:00Z,28.4330,-82.6670,60.81,1111122 
COMPS,ioos:station:USF.COMPS:ARP:1,2014-08-01T22:12:00Z,28.4330,-82.6670,61.29,1111122 
COMPS,ioos:station:USF.COMPS:ARP:1,2014-08-01T22:18:00Z,28.4330,-82.6670,60.77,1111122 
COMPS,ioos:station:USF.COMPS:ARP:1,2014-08-01T22:24:00Z,28.4330,-82.6670,61.31,1111122 
COMPS,ioos:station:USF.COMPS:ARP:1,2014-08-01T22:30:00Z,28.4330,-82.6670,62.53,1111122 
COMPS,ioos:station:USF.COMPS:ARP:1,2014-08-01T22:36:00Z,28.4330,-82.6670,62.26,1111122 
COMPS,ioos:station:USF.COMPS:ARP:1,2014-08-01T22:42:00Z,28.4330,-82.6670,62.56,1111122 
COMPS,ioos:station:USF.COMPS:ARP:1,2014-08-01T22:48:00Z,28.4330,-82.6670,63.69,1111122 
COMPS,ioos:station:USF.COMPS:ARP:1,2014-08-01T22:54:00Z,28.4330,-82.6670,63.18,1111122 
COMPS,ioos:station:USF.COMPS:ARP:1,2014-08-01T23:00:00Z,28.4330,-82.6670,61.81,1111122 
COMPS,ioos:station:USF.COMPS:ARP:1,2014-08-01T23:06:00Z,28.4330,-82.6670,61.64,1111122 
COMPS,ioos:station:USF.COMPS:ARP:1,2014-08-01T23:12:00Z,28.4330,-82.6670,63.53,1111122 
COMPS,ioos:station:USF.COMPS:ARP:1,2014-08-01T23:18:00Z,28.4330,-82.6670,62.99,1111122 
COMPS,ioos:station:USF.COMPS:ARP:1,2014-08-01T23:24:00Z,28.4330,-82.6670,64.2,1111122 
COMPS,ioos:station:USF.COMPS:ARP:1,2014-08-01T23:30:00Z,28.4330,-82.6670,63.9,1111122 
COMPS,ioos:station:USF.COMPS:ARP:1,2014-08-01T23:36:00Z,28.4330,-82.6670,63.94,1111122 
COMPS,ioos:station:USF.COMPS:ARP:1,2014-08-01T23:42:00Z,28.4330,-82.6670,65.19,1111122 
COMPS,ioos:station:USF.COMPS:ARP:1,2014-08-01T23:48:00Z,28.4330,-82.6670,66.59,1111122 
COMPS,ioos:station:USF.COMPS:ARP:1,2014-08-01T23:54:00Z,28.4330,-82.6670,66.53,1111122 
COMPS,ioos:station:USF.COMPS:ARP:1,2014-08-02T00:00:00Z,28.4330,-82.6670,67.06,1111122 
COMPS,ioos:station:USF.COMPS:ARP:1,2014-08-02T00:06:00Z,28.4330,-82.6670,67.59,1111122 
COMPS,ioos:station:USF.COMPS:ARP:1,2014-08-02T00:12:00Z,28.4330,-82.6670,67.8,1111122 
COMPS,ioos:station:USF.COMPS:ARP:1,2014-08-02T00:18:00Z,28.4330,-82.6670,67.83,1111122 
COMPS,ioos:station:USF.COMPS:ARP:1,2014-08-02T00:24:00Z,28.4330,-82.6670,65.55,1111122 
COMPS,ioos:station:USF.COMPS:ARP:1,2014-08-02T00:30:00Z,28.4330,-82.6670,65.4,1111122 
COMPS,ioos:station:USF.COMPS:ARP:1,2014-08-02T00:36:00Z,28.4330,-82.6670,66.53,1111122 
COMPS,ioos:station:USF.COMPS:ARP:1,2014-08-02T00:42:00Z,28.4330,-82.6670,65.65,1111122 
COMPS,ioos:station:USF.COMPS:ARP:1,2014-08-02T00:48:00Z,28.4330,-82.6670,63.45,1111122 
COMPS,ioos:station:USF.COMPS:ARP:1,2014-08-02T00:54:00Z,28.4330,-82.6670,64.29,1111122 
COMPS,ioos:station:USF.COMPS:ARP:1,2014-08-02T01:00:00Z,28.4330,-82.6670,64.59,1111122 
COMPS,ioos:station:USF.COMPS:ARP:1,2014-08-02T01:06:00Z,28.4330,-82.6670,63.31,1111122 
COMPS,ioos:station:USF.COMPS:ARP:1,2014-08-02T01:12:00Z,28.4330,-82.6670,61.63,1111122 
COMPS,ioos:station:USF.COMPS:ARP:1,2014-08-02T01:18:00Z,28.4330,-82.6670,63.61,1111122 
COMPS,ioos:station:USF.COMPS:ARP:1,2014-08-02T01:24:00Z,28.4330,-82.6670,64.16,1111122 
COMPS,ioos:station:USF.COMPS:ARP:1,2014-08-02T01:30:00Z,28.4330,-82.6670,62.75,1111122 
COMPS,ioos:station:USF.COMPS:ARP:1,2014-08-02T01:36:00Z,28.4330,-82.6670,61.94,1111122 
COMPS,ioos:station:USF.COMPS:ARP:1,2014-08-02T01:42:00Z,28.4330,-82.6670,66.11,1111122 
COMPS,ioos:station:USF.COMPS:ARP:1,2014-08-02T01:48:00Z,28.4330,-82.6670,69.06,1111122 
COMPS,ioos:station:USF.COMPS:ARP:1,2014-08-02T01:54:00Z,28.4330,-82.6670,71.51,1111122 
COMPS,ioos:station:USF.COMPS:ARP:1,2014-08-02T02:00:00Z,28.4330,-82.6670,71.97,1111122 
COMPS,ioos:station:USF.COMPS:ARP:1,2014-08-02T02:06:00Z,28.4330,-82.6670,74.19,1111122 
COMPS,ioos:station:USF.COMPS:ARP:1,2014-08-02T02:12:00Z,28.4330,-82.6670,75.86,1111122 
COMPS,ioos:station:USF.COMPS:ARP:1,2014-08-02T02:18:00Z,28.4330,-82.6670,77.24,1111122 
COMPS,ioos:station:USF.COMPS:ARP:1,2014-08-02T02:24:00Z,28.4330,-82.6670,76.78,1111122 
COMPS,ioos:station:USF.COMPS:ARP:1,2014-08-02T02:30:00Z,28.4330,-82.6670,77.27,1111122 
COMPS,ioos:station:USF.COMPS:ARP:1,2014-08-02T02:36:00Z,28.4330,-82.6670,76.8,1111122 
COMPS,ioos:station:USF.COMPS:ARP:1,2014-08-02T02:42:00Z,28.4330,-82.6670,76.95,1111122 
COMPS,ioos:station:USF.COMPS:ARP:1,2014-08-02T02:48:00Z,28.4330,-82.6670,77.02,1111122 
COMPS,ioos:station:USF.COMPS:ARP:1,2014-08-02T02:54:00Z,28.4330,-82.6670,76.4,1111122 
COMPS,ioos:station:USF.COMPS:ARP:1,2014-08-02T03:00:00Z,28.4330,-82.6670,76.68,1111122 
COMPS,ioos:station:USF.COMPS:ARP:1,2014-08-02T03:06:00Z,28.4330,-82.6670,78.13,1111122 